UZB335 UZFF-UZSB

Flight info

Callsign UZB335
Flight time 1h 4m
Altitude 36000
Route EKLER2C EKLER T609 TISIB DCT KUFIM L143 UVASU T388 TUKRI TUKRI2Z
Aircraft B752/M-SDE2E3FGHIJ3J4J7RWXY/LB1

Departure

Time 2026-05-07 14:22
Airport Fergana International Airport (UZFF)

Arrival

Time 2026-05-07 15:27
Airport Bukhara International Airport (UZSB)
Time Latitude Longitude Altitude Speed Heading
2026-05-07 13:39 40.37598 71.75004 1968 ft 0 kts 115°
2026-05-07 14:16 40.37590 71.75024 1967 ft 4 kts 118°
2026-05-07 14:16 40.37564 71.75054 1968 ft 5 kts 161°
2026-05-07 14:16 40.37540 71.75055 1968 ft 0 kts 184°
2026-05-07 14:16 40.37518 71.75052 1968 ft 6 kts 187°
2026-05-07 14:17 40.37464 71.75040 1968 ft 7 kts 189°
2026-05-07 14:17 40.37415 71.75028 1968 ft 7 kts 192°
2026-05-07 14:17 40.37361 71.75015 1968 ft 8 kts 189°
2026-05-07 14:17 40.37299 71.75002 1968 ft 9 kts 191°
2026-05-07 14:18 40.37238 71.74989 1968 ft 8 kts 187°
2026-05-07 14:18 40.37183 71.74982 1969 ft 7 kts 184°
2026-05-07 14:18 40.37134 71.74974 1969 ft 5 kts 204°
2026-05-07 14:18 40.37110 71.74934 1969 ft 5 kts 253°
2026-05-07 14:19 40.37109 71.74883 1969 ft 5 kts 273°
2026-05-07 14:19 40.37111 71.74828 1969 ft 6 kts 273°
2026-05-07 14:19 40.37115 71.74752 1969 ft 9 kts 275°
2026-05-07 14:19 40.37118 71.74695 1969 ft 0 kts 274°
2026-05-07 14:20 40.37120 71.74674 1969 ft 3 kts 274°
2026-05-07 14:20 40.37120 71.74620 1968 ft 7 kts 262°
2026-05-07 14:20 40.37093 71.74569 1969 ft 6 kts 209°
2026-05-07 14:21 40.37049 71.74557 1969 ft 6 kts 185°
2026-05-07 14:21 40.37034 71.74555 1969 ft 0 kts 182°
2026-05-07 14:21 40.36997 71.74553 1969 ft 26 kts 183°
2026-05-07 14:22 40.36580 71.74522 1970 ft 93 kts 183°
2026-05-07 14:22 40.35705 71.74460 1973 ft 155 kts 182°
2026-05-07 14:22 40.34471 71.74372 2188 ft 189 kts 184°
2026-05-07 14:22 40.33178 71.74256 2980 ft 189 kts 183°
2026-05-07 14:23 40.31874 71.74153 3722 ft 194 kts 184°
2026-05-07 14:23 40.30542 71.74043 4548 ft 192 kts 185°
2026-05-07 14:23 40.29224 71.74110 5215 ft 197 kts 161°
2026-05-07 14:23 40.28084 71.75086 5905 ft 197 kts 125°
2026-05-07 14:24 40.27564 71.76720 6273 ft 211 kts 94°
2026-05-07 14:24 40.27842 71.78734 6299 ft 236 kts 60°
2026-05-07 14:24 40.28962 71.80333 6619 ft 250 kts 29°
2026-05-07 14:24 40.30597 71.80942 7283 ft 247 kts 360°
2026-05-07 14:25 40.32317 71.80618 7756 ft 257 kts 343°
2026-05-07 14:25 40.33975 71.79820 8472 ft 255 kts 336°
2026-05-07 14:25 40.35611 71.78813 8940 ft 267 kts 334°
2026-05-07 14:25 40.37242 71.77717 9723 ft 261 kts 332°
2026-05-07 14:26 40.38812 71.76585 10378 ft 264 kts 331°
2026-05-07 14:26 40.40422 71.75378 11143 ft 262 kts 330°
2026-05-07 14:26 40.42113 71.74441 11531 ft 276 kts 349°
2026-05-07 14:26 40.44070 71.74094 11775 ft 296 kts 352°
2026-05-07 14:27 40.46195 71.73677 12045 ft 315 kts 351°
2026-05-07 14:27 40.48402 71.73210 12267 ft 334 kts 350°
2026-05-07 14:27 40.50775 71.72694 12532 ft 352 kts 350°
2026-05-07 14:27 40.53201 71.72159 13242 ft 356 kts 350°
2026-05-07 14:28 40.55626 71.71619 13902 ft 359 kts 350°
2026-05-07 14:28 40.58126 71.71059 14594 ft 362 kts 349°
2026-05-07 14:28 40.60623 71.70499 15248 ft 367 kts 349°
2026-05-07 14:28 40.63118 71.69895 15872 ft 369 kts 345°
2026-05-07 14:29 40.65478 71.68651 16500 ft 371 kts 329°
2026-05-07 14:29 40.67518 71.66555 17120 ft 373 kts 313°
2026-05-07 14:29 40.69029 71.63810 17720 ft 375 kts 297°
2026-05-07 14:29 40.69994 71.60651 18333 ft 378 kts 289°
2026-05-07 14:30 40.70861 71.57361 18952 ft 380 kts 289°
2026-05-07 14:30 40.71713 71.54087 19550 ft 384 kts 289°
2026-05-07 14:30 40.72576 71.50726 20210 ft 385 kts 289°
2026-05-07 14:30 40.73422 71.47402 20776 ft 390 kts 289°
2026-05-07 14:31 40.74285 71.43995 21411 ft 392 kts 289°
2026-05-07 14:31 40.75139 71.40608 21996 ft 395 kts 289°
2026-05-07 14:31 40.76012 71.37136 22558 ft 399 kts 289°
2026-05-07 14:31 40.76887 71.33652 23166 ft 401 kts 289°
2026-05-07 14:32 40.77764 71.30155 23685 ft 405 kts 289°
2026-05-07 14:32 40.78658 71.26638 24256 ft 406 kts 291°
2026-05-07 14:32 40.79847 71.23277 24695 ft 410 kts 298°
2026-05-07 14:32 40.81209 71.19953 25244 ft 411 kts 298°
2026-05-07 14:33 40.82554 71.16644 25691 ft 414 kts 298°
2026-05-07 14:33 40.83936 71.13258 26194 ft 415 kts 298°
2026-05-07 14:33 40.85303 71.09912 26635 ft 418 kts 298°
2026-05-07 14:33 40.86696 71.06503 27076 ft 420 kts 298°
2026-05-07 14:34 40.88071 71.03136 27469 ft 423 kts 298°
2026-05-07 14:34 40.89473 70.99701 27973 ft 423 kts 298°
2026-05-07 14:34 40.90863 70.96284 28318 ft 427 kts 298°
2026-05-07 14:34 40.92260 70.92847 28734 ft 429 kts 298°
2026-05-07 14:35 40.93681 70.89348 29154 ft 430 kts 298°
2026-05-07 14:35 40.95095 70.85860 29472 ft 434 kts 298°
2026-05-07 14:35 40.96521 70.82341 29877 ft 435 kts 298°
2026-05-07 14:35 40.97960 70.78784 30219 ft 437 kts 298°
2026-05-07 14:36 40.99412 70.75211 30617 ft 438 kts 298°
2026-05-07 14:36 41.00878 70.71603 30918 ft 441 kts 298°
2026-05-07 14:36 41.02338 70.68003 31238 ft 443 kts 298°
2026-05-07 14:36 41.03782 70.64439 31635 ft 443 kts 298°
2026-05-07 14:37 41.05231 70.60849 32086 ft 441 kts 297°
2026-05-07 14:37 41.07138 70.53190 32836 ft 440 kts 279°
2026-05-07 14:37 41.07542 70.49170 33254 ft 439 kts 278°
2026-05-07 14:38 41.07930 70.45203 33619 ft 438 kts 278°
2026-05-07 14:38 41.08313 70.41138 33990 ft 438 kts 278°
2026-05-07 14:38 41.08678 70.37147 34268 ft 437 kts 278°
2026-05-07 14:38 41.09040 70.33131 34306 ft 433 kts 277°
2026-05-07 14:39 41.09547 70.25233 34327 ft 434 kts 268°
2026-05-07 14:39 41.08534 70.17330 34301 ft 437 kts 258°
2026-05-07 14:40 41.07189 70.09517 34286 ft 436 kts 258°
2026-05-07 14:40 41.05807 70.01692 34246 ft 437 kts 258°
2026-05-07 14:41 41.04409 69.93881 34219 ft 437 kts 258°
2026-05-07 14:41 41.03007 69.86108 34192 ft 436 kts 257°
2026-05-07 14:42 41.01595 69.78313 34166 ft 436 kts 257°
2026-05-07 14:42 41.00175 69.70516 34164 ft 436 kts 257°
2026-05-07 14:43 40.98757 69.62764 34127 ft 436 kts 257°
2026-05-07 14:43 40.97329 69.54985 34083 ft 436 kts 257°
2026-05-07 14:44 40.95892 69.47188 34023 ft 437 kts 257°
2026-05-07 14:44 40.94453 69.39419 34016 ft 435 kts 257°
2026-05-07 14:45 40.93014 69.31677 34013 ft 435 kts 256°
2026-05-07 14:45 40.91563 69.23901 33991 ft 434 kts 256°
2026-05-07 14:46 40.90118 69.16191 33973 ft 436 kts 256°
2026-05-07 14:46 40.88657 69.08423 33970 ft 437 kts 256°
2026-05-07 14:47 40.87192 69.00666 33963 ft 436 kts 256°
2026-05-07 14:47 40.85719 68.92902 33952 ft 435 kts 256°
2026-05-07 14:48 40.84255 68.85213 33944 ft 436 kts 256°
2026-05-07 14:48 40.82775 68.77468 33943 ft 435 kts 256°
2026-05-07 14:49 40.81287 68.69717 33939 ft 434 kts 256°
2026-05-07 14:49 40.79913 68.62019 33934 ft 434 kts 257°
2026-05-07 14:50 40.78501 68.54297 33937 ft 435 kts 254°
2026-05-07 14:50 40.76733 68.46666 33933 ft 435 kts 253°
2026-05-07 14:51 40.74983 68.39075 33923 ft 435 kts 253°
2026-05-07 14:51 40.73211 68.31409 33939 ft 435 kts 253°
2026-05-07 14:52 40.71437 68.23747 33928 ft 434 kts 253°
2026-05-07 14:52 40.69668 68.16182 33927 ft 434 kts 253°
2026-05-07 14:53 40.67870 68.08533 33933 ft 434 kts 253°
2026-05-07 14:53 40.66090 68.00982 33924 ft 433 kts 253°
2026-05-07 14:54 40.64299 67.93414 33924 ft 434 kts 253°
2026-05-07 14:54 40.62488 67.85787 33929 ft 434 kts 253°
2026-05-07 14:55 40.60695 67.78261 33920 ft 433 kts 253°
2026-05-07 14:55 40.58881 67.70670 33933 ft 433 kts 253°
2026-05-07 14:56 40.57076 67.63142 33942 ft 432 kts 253°
2026-05-07 14:56 40.55270 67.55628 33939 ft 430 kts 253°
2026-05-07 14:57 40.53467 67.48157 33939 ft 430 kts 253°
2026-05-07 14:57 40.51665 67.40711 33942 ft 429 kts 253°
2026-05-07 14:58 40.49865 67.33299 33949 ft 428 kts 253°
2026-05-07 14:58 40.48043 67.25824 33961 ft 429 kts 253°
2026-05-07 14:59 40.46232 67.18411 33986 ft 428 kts 253°
2026-05-07 14:59 40.45334 67.14749 33877 ft 411 kts 253°
2026-05-07 14:59 40.44485 67.11256 33632 ft 403 kts 254°
2026-05-07 15:00 40.43639 67.07736 33361 ft 404 kts 254°
2026-05-07 15:00 40.42794 67.04234 33102 ft 409 kts 254°
2026-05-07 15:00 40.41938 67.00693 32840 ft 412 kts 254°
2026-05-07 15:00 40.41069 66.97102 32572 ft 412 kts 254°
2026-05-07 15:01 40.40200 66.93520 32305 ft 412 kts 254°
2026-05-07 15:01 40.39336 66.89964 32042 ft 412 kts 254°
2026-05-07 15:01 40.38472 66.86414 31776 ft 412 kts 254°
2026-05-07 15:01 40.37594 66.82811 31508 ft 413 kts 254°
2026-05-07 15:02 40.36726 66.79251 31246 ft 414 kts 254°
2026-05-07 15:02 40.35852 66.75677 30980 ft 415 kts 254°
2026-05-07 15:02 40.34965 66.72051 30709 ft 416 kts 254°
2026-05-07 15:02 40.34090 66.68484 30445 ft 417 kts 254°
2026-05-07 15:03 40.33199 66.64854 30174 ft 416 kts 254°
2026-05-07 15:03 40.32311 66.61243 29902 ft 413 kts 254°
2026-05-07 15:03 40.31424 66.57641 29632 ft 410 kts 254°
2026-05-07 15:03 40.30551 66.54101 29363 ft 408 kts 254°
2026-05-07 15:04 40.29687 66.50601 29101 ft 407 kts 254°
2026-05-07 15:04 40.28811 66.47059 28830 ft 406 kts 254°
2026-05-07 15:04 40.27946 66.43568 28568 ft 405 kts 254°
2026-05-07 15:04 40.27082 66.40089 28302 ft 403 kts 254°
2026-05-07 15:05 40.26212 66.36585 28033 ft 401 kts 254°
2026-05-07 15:05 40.25349 66.33120 27768 ft 399 kts 253°
2026-05-07 15:05 40.24493 66.29681 27414 ft 400 kts 253°
2026-05-07 15:05 40.23623 66.26197 27017 ft 399 kts 253°
2026-05-07 15:06 40.22770 66.22782 26604 ft 396 kts 252°
2026-05-07 15:06 40.21916 66.19370 26171 ft 392 kts 252°
2026-05-07 15:06 40.21073 66.16009 25729 ft 389 kts 252°
2026-05-07 15:06 40.20229 66.12645 25279 ft 388 kts 252°
2026-05-07 15:07 40.19390 66.09306 24820 ft 386 kts 252°
2026-05-07 15:07 40.18554 66.05984 24351 ft 385 kts 252°
2026-05-07 15:07 40.17726 66.02699 23917 ft 382 kts 252°
2026-05-07 15:07 40.16889 65.99387 23426 ft 380 kts 252°
2026-05-07 15:08 40.16048 65.96063 22971 ft 378 kts 252°
2026-05-07 15:08 40.15208 65.92750 22534 ft 376 kts 252°
2026-05-07 15:08 40.14382 65.89494 22107 ft 374 kts 252°
2026-05-07 15:08 40.13553 65.86227 21629 ft 372 kts 252°
2026-05-07 15:09 40.12733 65.83006 21169 ft 370 kts 252°
2026-05-07 15:09 40.11926 65.79833 20724 ft 367 kts 252°
2026-05-07 15:09 40.11117 65.76662 20288 ft 363 kts 252°
2026-05-07 15:09 40.10325 65.73559 19867 ft 362 kts 252°
2026-05-07 15:10 40.09528 65.70437 19448 ft 360 kts 252°
2026-05-07 15:10 40.08737 65.67349 19037 ft 358 kts 252°
2026-05-07 15:10 40.07946 65.64261 18627 ft 355 kts 252°
2026-05-07 15:10 40.07162 65.61208 18221 ft 352 kts 252°
2026-05-07 15:11 40.06380 65.58161 17816 ft 350 kts 253°
2026-05-07 15:11 40.05590 65.55091 17405 ft 349 kts 253°
2026-05-07 15:11 40.04748 65.52116 16988 ft 349 kts 245°
2026-05-07 15:11 40.03570 65.49368 16576 ft 346 kts 242°
2026-05-07 15:12 40.02363 65.46633 16163 ft 343 kts 242°
2026-05-07 15:12 40.01184 65.43971 15766 ft 340 kts 242°
2026-05-07 15:12 39.99994 65.41297 15382 ft 339 kts 241°
2026-05-07 15:12 39.98819 65.38664 15002 ft 337 kts 241°
2026-05-07 15:13 39.97644 65.36036 14630 ft 336 kts 241°
2026-05-07 15:13 39.96478 65.33430 14231 ft 334 kts 240°
2026-05-07 15:13 39.95302 65.30807 13872 ft 332 kts 240°
2026-05-07 15:13 39.94147 65.28233 13501 ft 331 kts 240°
2026-05-07 15:14 39.93000 65.25678 13132 ft 329 kts 240°
2026-05-07 15:14 39.91836 65.23088 12777 ft 328 kts 240°
2026-05-07 15:14 39.90692 65.20548 12422 ft 326 kts 240°
2026-05-07 15:14 39.89546 65.18003 12031 ft 324 kts 240°
2026-05-07 15:15 39.88408 65.15478 11678 ft 322 kts 240°
2026-05-07 15:15 39.87284 65.12986 11318 ft 321 kts 240°
2026-05-07 15:15 39.86158 65.10490 10962 ft 320 kts 240°
2026-05-07 15:15 39.85038 65.08012 10595 ft 318 kts 240°
2026-05-07 15:16 39.83927 65.05555 10238 ft 315 kts 240°
2026-05-07 15:16 39.82836 65.03145 9846 ft 299 kts 240°
2026-05-07 15:16 39.81826 65.00914 9543 ft 279 kts 240°
2026-05-07 15:16 39.80848 64.98756 9365 ft 270 kts 240°
2026-05-07 15:17 39.79909 64.96683 9159 ft 264 kts 240°
2026-05-07 15:17 39.78991 64.94659 8948 ft 261 kts 240°
2026-05-07 15:17 39.78067 64.92624 8730 ft 264 kts 240°
2026-05-07 15:17 39.77124 64.90546 8528 ft 268 kts 240°
2026-05-07 15:18 39.76180 64.88470 8308 ft 267 kts 240°
2026-05-07 15:18 39.75228 64.86379 8073 ft 265 kts 239°
2026-05-07 15:18 39.74301 64.84342 7834 ft 266 kts 239°
2026-05-07 15:18 39.73348 64.82250 7585 ft 267 kts 240°
2026-05-07 15:19 39.72400 64.80172 7340 ft 266 kts 239°
2026-05-07 15:19 39.71443 64.78072 7084 ft 265 kts 239°
2026-05-07 15:19 39.70499 64.76002 6802 ft 262 kts 239°
2026-05-07 15:19 39.69562 64.73953 6545 ft 265 kts 239°
2026-05-07 15:20 39.68603 64.71855 6272 ft 268 kts 239°
2026-05-07 15:20 39.67659 64.69791 6010 ft 267 kts 239°
2026-05-07 15:20 39.66716 64.67731 5741 ft 265 kts 239°
2026-05-07 15:20 39.65768 64.65660 5463 ft 265 kts 239°
2026-05-07 15:21 39.64851 64.63660 5167 ft 254 kts 239°
2026-05-07 15:21 39.63947 64.61689 4902 ft 250 kts 239°
2026-05-07 15:21 39.63039 64.59712 4657 ft 254 kts 239°
2026-05-07 15:21 39.62134 64.57740 4385 ft 255 kts 239°
2026-05-07 15:22 39.61214 64.55739 4102 ft 255 kts 239°
2026-05-07 15:22 39.60420 64.53674 3826 ft 253 kts 258°
2026-05-07 15:22 39.60419 64.51456 3573 ft 239 kts 290°
2026-05-07 15:22 39.61074 64.49536 3247 ft 229 kts 298°
2026-05-07 15:23 39.61769 64.47729 2945 ft 222 kts 298°
2026-05-07 15:23 39.62658 64.46152 2761 ft 211 kts 326°
2026-05-07 15:23 39.63961 64.45441 2595 ft 202 kts 350°
2026-05-07 15:23 39.65329 64.45487 2526 ft 189 kts 11°
2026-05-07 15:24 39.66587 64.45764 2532 ft 183 kts
2026-05-07 15:24 39.67812 64.46020 2307 ft 169 kts 10°
2026-05-07 15:24 39.68905 64.46262 2109 ft 151 kts 10°
2026-05-07 15:24 39.69896 64.46486 1907 ft 136 kts
2026-05-07 15:25 39.70774 64.46685 1734 ft 123 kts
2026-05-07 15:25 39.71611 64.46876 1631 ft 124 kts
2026-05-07 15:25 39.72484 64.47076 1479 ft 129 kts
2026-05-07 15:25 39.73362 64.47277 1311 ft 128 kts
2026-05-07 15:26 39.74245 64.47468 1148 ft 128 kts
2026-05-07 15:26 39.75126 64.47667 998 ft 128 kts 10°
2026-05-07 15:26 39.76008 64.47872 829 ft 127 kts 10°
2026-05-07 15:26 39.76856 64.48064 756 ft 106 kts
2026-05-07 15:27 39.77341 64.48186 756 ft 42 kts 11°
2026-05-07 15:27 39.77597 64.48244 756 ft 34 kts 10°
2026-05-07 15:27 39.77820 64.48296 756 ft 32 kts 11°
2026-05-07 15:27 39.78048 64.48350 756 ft 33 kts 11°
2026-05-07 15:28 39.78287 64.48408 756 ft 36 kts 12°
2026-05-07 15:28 39.78534 64.48462 756 ft 35 kts 11°
2026-05-07 15:28 39.78743 64.48511 756 ft 20 kts 14°
2026-05-07 15:28 39.78831 64.48534 756 ft 7 kts 330°
2026-05-07 15:29 39.78830 64.48499 756 ft 3 kts 191°
2026-05-07 15:29 39.78793 64.48508 756 ft 6 kts 169°
2026-05-07 15:29 39.78743 64.48510 756 ft 9 kts 187°
2026-05-07 15:29 39.78651 64.48490 756 ft 17 kts 190°
2026-05-07 15:30 39.78507 64.48457 756 ft 24 kts 190°
2026-05-07 15:30 39.78311 64.48412 756 ft 32 kts 189°
2026-05-07 15:30 39.78064 64.48354 756 ft 38 kts 191°
2026-05-07 15:30 39.77795 64.48292 756 ft 39 kts 191°
2026-05-07 15:31 39.77532 64.48230 756 ft 38 kts 189°
2026-05-07 15:31 39.77273 64.48171 756 ft 36 kts 191°
2026-05-07 15:31 39.77026 64.48111 756 ft 35 kts 191°
2026-05-07 15:31 39.76785 64.48055 756 ft 34 kts 190°
2026-05-07 15:32 39.76658 64.48028 756 ft 1 kts 193°
2026-05-07 15:32 39.76647 64.48018 756 ft 2 kts 230°
2026-05-07 15:32 39.76639 64.47988 756 ft 5 kts 263°
2026-05-07 15:32 39.76644 64.47925 756 ft 5 kts 281°
2026-05-07 15:33 39.76644 64.47920 756 ft 0 kts 281°
2026-05-07 15:33 39.76648 64.47900 756 ft 5 kts 281°
2026-05-07 15:33 39.76657 64.47837 756 ft 7 kts 281°
2026-05-07 15:34 39.76665 64.47775 756 ft 6 kts 281°
2026-05-07 15:34 39.76683 64.47735 756 ft 5 kts 327°
2026-05-07 15:34 39.76712 64.47713 756 ft 4 kts 316°
2026-05-07 15:34 39.76718 64.47684 756 ft 2 kts 248°
2026-05-07 15:35 39.76703 64.47670 756 ft 3 kts 206°
2026-05-07 15:35 39.76686 64.47661 756 ft 2 kts 197°
2026-05-07 15:35 39.76676 64.47658 756 ft 0 kts 193°